Weather History for Springfield, CO

Change the Weather History Date:

Thursday, February 14, 2013

  Actual Average Record
Temperature  
Mean Temperature 35 °F -  
Max Temperature 48 °F 50 °F 73 °F (1999)
Min Temperature 21 °F 20 °F -4 °F (2007)
Degree Days  
Heating Degree Days 30 30  
Month to date heating degree days 383 433  
Since 1 July heating degree days 3313 3609  
Cooling Degree Days 0 0  
Month to date cooling degree days 0 0  
Year to date cooling degree days 0 0  
Moisture  
Dew Point 18 °F    
Average Humidity 55    
Maximum Humidity 78    
Minimum Humidity 31    
Precipitation  
Precipitation 0.00 in 0.01 in 0.03 in (2003)
Month to date precipitation 0.04 0.25  
Year to date precipitation 0.06 0.62  
Sea Level Pressure  
Sea Level Pressure 30.14 in    
Wind  
Wind Speed 12 mph (NNE)    
Max Wind Speed 31 mph    
Max Gust Speed 38 mph    
T = Trace of Precipitation, MM = Missing Value Source: NWS Daily Summary

Daily Weather History Graph

Daily Weather History Graph

Search for Another Location

Airport:

Trip Planner

Search our weather history database for the weather conditions in past years. The results will help you decide how hot, cold, wet, or windy it might be!

Date:

Astronomy

Feb. 14, 2013 Rise Set
Actual Time 6:40 AM MST 5:29 PM MST
Civil Twilight 6:13 AM MST 5:56 PM MST
Nautical Twilight 5:42 AM MST 6:26 PM MST
Astronomical Twilight 5:12 AM MST 6:57 PM MST
Moon 8:50 AM MST (2/14) 10:26 PM MST (2/14)
Length of Visible Light 11h 42m
Length of Day
10h 49m
Waxing Crescent, 22% of the Moon is Illuminated
Feb 14
Waxing Crescent
Feb 17
First Quarter
Feb 25
Full
Mar 4
Last Quarter
Mar 11
New

Hourly Weather History & Observations

Time (MST) Temp. Windchill Dew Point Humidity Pressure Visibility Wind Dir Wind Speed Gust Speed Precip Events Conditions
12:56 AM 24.1 °F 14.4 °F 10.0 °F 55% 30.01 in - NNW 9.2 mph - N/A   Unknown
1:56 AM 27.0 °F 17.3 °F 12.0 °F 53% 30.00 in - NNE 10.4 mph - N/A   Unknown
2:56 AM 21.0 °F 9.9 °F 10.0 °F 63% 30.01 in - North 10.4 mph - N/A   Unknown
3:56 AM 23.0 °F 12.4 °F 12.9 °F 65% 30.01 in - NNW 10.4 mph - N/A   Unknown
4:56 AM 23.0 °F 13.1 °F 15.1 °F 72% 30.02 in - NNW 9.2 mph - N/A   Unknown
5:56 AM 21.9 °F 11.7 °F 16.0 °F 78% 30.07 in - North 9.2 mph - N/A   Unknown
6:56 AM 25.0 °F 17.1 °F 18.0 °F 75% 30.08 in - North 6.9 mph - N/A   Unknown
7:56 AM 28.0 °F 19.3 °F 19.9 °F 72% 30.14 in - NW 9.2 mph - N/A   Unknown
8:56 AM 37.0 °F 30.4 °F 21.0 °F 52% 30.11 in - North 9.2 mph - N/A   Unknown
9:56 AM 41.0 °F 35.2 °F 19.0 °F 41% 30.10 in - North 9.2 mph - N/A   Unknown
10:56 AM 42.1 °F 37.1 °F 18.0 °F 38% 30.11 in - North 8.1 mph - N/A   Unknown
11:56 AM 44.1 °F 40.1 °F 18.0 °F 35% 30.09 in - NE 6.9 mph - N/A   Unknown
12:56 PM 45.0 °F 40.1 °F 19.0 °F 36% 30.07 in - ENE 9.2 mph - N/A   Unknown
1:56 PM 46.9 °F - 19.0 °F 33% 30.05 in - NNE 8.1 mph 17.3 mph N/A   Unknown
2:56 PM 46.9 °F - 18.0 °F 32% 30.10 in - ENE 11.5 mph 17.3 mph N/A   Unknown
3:56 PM 46.0 °F 40.2 °F 19.0 °F 34% 30.12 in - NE 12.7 mph - N/A   Unknown
4:56 PM 36.0 °F 23.2 °F 28.0 °F 73% 30.20 in - NE 28.8 mph 33.4 mph N/A   Unknown
5:56 PM 33.1 °F 20.6 °F 21.9 °F 64% 30.26 in - NE 23.0 mph 34.5 mph N/A   Unknown
6:56 PM 30.0 °F 16.9 °F 23.0 °F 75% 30.30 in - NE 21.9 mph - N/A   Unknown
7:56 PM 28.9 °F 16.5 °F 23.0 °F 78% 30.32 in - NE 18.4 mph - N/A   Unknown
8:56 PM 28.9 °F 18.6 °F 21.0 °F 72% 30.29 in - NNE 12.7 mph - N/A   Unknown
9:56 PM 28.9 °F 21.1 °F 19.0 °F 67% 30.32 in - North 8.1 mph - N/A   Unknown
10:56 PM 28.9 °F 19.2 °F 18.0 °F 64% 30.30 in - North 11.5 mph - N/A   Unknown
11:56 PM 28.9 °F 21.1 °F 19.0 °F 67% 30.30 in - NNW 8.1 mph - N/A   Unknown